Regional Weather Roundup
Issued by NWS Cleveland, OH

Home | Current Version | Previous Version | Text Only | Print | Product List | Glossary On
Versions: 1 2 3 4 5 6 7 8 9 10 11 12 13 14 15 16 17 18 19 20 21 22 23 24 25 26 27 28 29 30 31 32 33 34 35 36 37 38 39 40 41 42 43 44 45 46 47 48 49 50
000
ASUS41 KCLE 170312
RWRCLE
OHIO REGIONAL WEATHER ROUNDUP
NATIONAL WEATHER SERVICE WILMINGTON, OH
1000 PM EST MON JAN 16 2017

NOTE: "FAIR" INDICATES FEW OR NO CLOUDS BELOW 12,000 FEET WITH NO
SIGNIFICANT WEATHER AND/OR OBSTRUCTIONS TO VISIBILITY.

OHZ001>008-015>018-024>027-034-035-043-044-170400-
   NORTHWEST OHIO

CITY           SKY/WX    TMP DP  RH WIND       PRES   REMARKS
DEFIANCE       CLOUDY    37  34  89 E6        30.08F FOG
FINDLAY        LGT RAIN  42  38  85 SE12      30.07F FOG
TOLEDO EXPRESS LGT RAIN  34  34 100 E7        30.10F VSB 1   WCI  28
TOLEDO EXEC    MIX PCPN  35  35 100 NE7       30.12F VSB 1   WCI  29
LIMA           CLOUDY    43  43 100 SE14      30.06F FOG
$$

OHZ009>014-019>023-028>033-038-089-170400-
   NORTHEAST OHIO

CITY           SKY/WX    TMP DP  RH WIND       PRES   REMARKS
CLE-HOPKINS    CLOUDY    41  34  76 SE8       30.17F
CLE-LAKEFRONT  CLOUDY    39  34  82 SE7       30.15F
CUY CO. ARPT   CLOUDY    39  34  81 SE9       30.17F
LORAIN-ELYRIA  CLOUDY    37  34  89 S6        30.15F
ASHTABULA      CLOUDY    36  28  73 E3        30.20F
AKRON-CANTON   CLOUDY    38  33  82 SE9       30.16F HAZE
WOOSTER        CLOUDY    36  34  92 SE6       30.15F
MANSFIELD      CLOUDY    39  38  96 S13       30.13F FOG
YOUNGSTOWN     CLOUDY    36  33  89 E7        30.18F
$$

OHZ042-051>053-060>062-070>072-077>081-170400-
  SOUTHWEST OHIO

CITY           SKY/WX    TMP DP  RH WIND       PRES   REMARKS
CINC-COVINGTON CLOUDY    51  51 100 SE8       30.06F FOG
CINC-LUNKEN    FOG       47  47 100 S5        30.09F VSB 1
HAMILTON       CLOUDY    50  50 100 E3        30.09F FOG
DAYTON         FOG       47  47 100 SE10      30.08F VSB 1
WRIGHT-PAT AFB LGT RAIN  48  48 100 CALM      30.09F
DAYTON GENERAL LGT RAIN  51  50  96 E10       30.07F FOG
WILMINGTON     LGT RAIN  47  47 100 E7        30.10F FOG
$$

OHZ036-037-039>041-045>050-054>059-063>069-073>076-082>088-170400-
  CENTRAL AND SOUTHEAST OHIO

CITY           SKY/WX    TMP DP  RH WIND       PRES   REMARKS
COLUMBUS       LGT RAIN  45  44  97 E6        30.14F FOG
OSU AIRPORT    LGT RAIN  45  44  97 SE9       30.12F FOG
BOLTON FIELD   CLOUDY    44  44  99 SE5       30.14F
RICKENBACK AFB LGT RAIN  43  43 100 E3        30.14F
NEWARK         LGT RAIN  41  39  93 CALM      30.16F FOG
MARION         LGT RAIN  41  39  93 SE12      30.11F FOG
LANCASTER      LGT RAIN  46  44  93 SE6       30.15F FOG
ZANESVILLE     CLOUDY    41  40  96 CALM      30.17S FOG
NEW PHILLY     CLOUDY    40  37  89 E3        30.18F
$$



USA.gov is the U.S. government's official web portal to all federal, state and local government web resources and services.